BAW94F EDDH-EGLL

Flight info

Callsign BAW94F
Flight time 0h 40m
Altitude 36000
Route WSN5G WSN N125 ITMIZ DCT ABNED L980 LOGAN LOGAN2H
Aircraft A320/M-SDE3FGHIRWY/LB1

Departure

Time 2026-05-05 08:44
Airport Hamburg Helmut Schmidt Airport (EDDH)

Arrival

Time 2026-05-05 09:24
Airport London Heathrow Airport (EGLL)
Time Latitude Longitude Altitude Speed Heading
2026-05-05 08:13 53.63075 10.00367 45 ft 0 kts 96°
2026-05-05 08:35 53.63075 10.00360 45 ft 1 kts 96°
2026-05-05 08:35 53.63076 10.00346 45 ft 1 kts 96°
2026-05-05 08:35 53.63077 10.00333 45 ft 1 kts 96°
2026-05-05 08:35 53.63078 10.00320 45 ft 1 kts 96°
2026-05-05 08:36 53.63079 10.00302 44 ft 2 kts 105°
2026-05-05 08:36 53.63083 10.00284 44 ft 2 kts 122°
2026-05-05 08:36 53.63089 10.00269 42 ft 2 kts 144°
2026-05-05 08:36 53.63099 10.00260 42 ft 0 kts 177°
2026-05-05 08:39 53.63092 10.00260 45 ft 3 kts 178°
2026-05-05 08:39 53.63062 10.00255 43 ft 6 kts 190°
2026-05-05 08:39 53.63058 10.00253 45 ft 0 kts 192°
2026-05-05 08:40 53.63056 10.00250 45 ft 0 kts 210°
2026-05-05 08:40 53.63044 10.00236 45 ft 4 kts 213°
2026-05-05 08:40 53.63010 10.00199 45 ft 8 kts 213°
2026-05-05 08:40 53.62978 10.00165 45 ft 1 kts 212°
2026-05-05 08:41 53.62965 10.00151 43 ft 4 kts 211°
2026-05-05 08:41 53.62930 10.00115 45 ft 8 kts 212°
2026-05-05 08:41 53.62876 10.00052 44 ft 9 kts 224°
2026-05-05 08:41 53.62844 9.99958 44 ft 9 kts 242°
2026-05-05 08:42 53.62815 9.99859 46 ft 8 kts 243°
2026-05-05 08:42 53.62824 9.99782 47 ft 6 kts 326°
2026-05-05 08:42 53.62832 9.99776 47 ft 0 kts 333°
2026-05-05 08:43 53.62835 9.99773 47 ft 5 kts 333°
2026-05-05 08:43 53.63124 9.99525 45 ft 90 kts 332°
2026-05-05 08:43 53.63900 9.98851 63 ft 155 kts 334°
2026-05-05 08:43 53.64970 9.97891 273 ft 198 kts 333°
2026-05-05 08:44 53.66302 9.96692 824 ft 221 kts 334°
2026-05-05 08:44 53.67624 9.95531 2254 ft 212 kts 335°
2026-05-05 08:44 53.68961 9.94419 3299 ft 216 kts 334°
2026-05-05 08:44 53.70298 9.93238 4260 ft 219 kts 321°
2026-05-05 08:45 53.71220 9.91231 5223 ft 219 kts 289°
2026-05-05 08:45 53.71358 9.88721 6206 ft 219 kts 257°
2026-05-05 08:45 53.70825 9.86291 7084 ft 229 kts 243°
2026-05-05 08:45 53.70006 9.83849 7596 ft 252 kts 239°
2026-05-05 08:46 53.69037 9.81247 8191 ft 268 kts 237°
2026-05-05 08:46 53.68028 9.78565 9049 ft 273 kts 237°
2026-05-05 08:46 53.67002 9.75797 9273 ft 277 kts 238°
2026-05-05 08:46 53.66044 9.73171 9412 ft 276 kts 238°
2026-05-05 08:47 53.65044 9.70404 9533 ft 277 kts 238°
2026-05-05 08:47 53.64048 9.67638 9646 ft 277 kts 238°
2026-05-05 08:47 53.63044 9.64848 9765 ft 278 kts 238°
2026-05-05 08:47 53.62040 9.62060 9914 ft 280 kts 238°
2026-05-05 08:48 53.61005 9.59194 10233 ft 297 kts 238°
2026-05-05 08:48 53.59884 9.56093 10484 ft 322 kts 238°
2026-05-05 08:48 53.57875 9.50549 11726 ft 332 kts 239°
2026-05-05 08:48 53.54764 9.41976 13741 ft 344 kts 239°
2026-05-05 08:49 53.50816 9.31156 15832 ft 352 kts 239°
2026-05-05 08:49 53.48231 9.24080 17312 ft 357 kts 239°
2026-05-05 08:49 53.45596 9.16914 18687 ft 363 kts 239°
2026-05-05 08:49 53.42926 9.09665 19983 ft 368 kts 239°
2026-05-05 08:50 53.40251 9.02418 21222 ft 373 kts 239°
2026-05-05 08:50 53.37435 8.94807 22402 ft 381 kts 239°
2026-05-05 08:50 53.34718 8.87127 23639 ft 386 kts 245°
2026-05-05 08:50 53.32775 8.78701 24701 ft 389 kts 250°
2026-05-05 08:51 53.30897 8.70171 25769 ft 392 kts 250°
2026-05-05 08:51 53.29007 8.61632 26676 ft 396 kts 250°
2026-05-05 08:51 53.27095 8.52896 27580 ft 400 kts 250°
2026-05-05 08:51 53.25281 8.44209 28407 ft 404 kts 252°
2026-05-05 08:52 53.23631 8.35155 29184 ft 408 kts 252°
2026-05-05 08:52 53.21942 8.26057 29930 ft 412 kts 252°
2026-05-05 08:52 53.20228 8.17022 30566 ft 416 kts 252°
2026-05-05 08:52 53.18553 8.08242 31226 ft 418 kts 252°
2026-05-05 08:53 53.16811 7.98989 32172 ft 413 kts 252°
2026-05-05 08:53 53.15099 7.89928 33093 ft 408 kts 252°
2026-05-05 08:53 53.13401 7.81010 33957 ft 404 kts 251°
2026-05-05 08:53 53.11683 7.72033 34467 ft 405 kts 251°
2026-05-05 08:54 53.09141 7.60557 34939 ft 410 kts 248°
2026-05-05 08:54 53.05750 7.47318 35104 ft 410 kts 246°
2026-05-05 08:54 53.03528 7.38585 35509 ft 412 kts 246°
2026-05-05 08:54 53.01280 7.29825 35883 ft 410 kts 246°
2026-05-05 08:55 52.99036 7.21129 35954 ft 409 kts 246°
2026-05-05 08:55 52.91475 6.92113 35969 ft 412 kts 246°
2026-05-05 08:56 52.86831 6.74403 35962 ft 431 kts 246°
2026-05-05 08:56 52.81964 6.56034 35952 ft 434 kts 246°
2026-05-05 08:57 52.77066 6.37702 35949 ft 437 kts 245°
2026-05-05 08:57 52.72125 6.19355 35950 ft 437 kts 245°
2026-05-05 08:58 52.65537 5.95132 35951 ft 440 kts 245°
2026-05-05 08:58 52.60502 5.76783 35953 ft 439 kts 245°
2026-05-05 08:59 52.55440 5.58478 35965 ft 439 kts 245°
2026-05-05 08:59 52.50375 5.40303 35966 ft 442 kts 244°
2026-05-05 09:00 52.43002 5.14098 35947 ft 441 kts 244°
2026-05-05 09:00 52.37005 4.92988 35944 ft 443 kts 244°
2026-05-05 09:01 52.31754 4.74670 35939 ft 444 kts 244°
2026-05-05 09:01 52.26533 4.56594 35946 ft 444 kts 244°
2026-05-05 09:02 52.18435 4.28826 35953 ft 440 kts 244°
2026-05-05 09:02 52.10737 4.02722 35953 ft 441 kts 244°
2026-05-05 09:03 52.05376 3.84714 35958 ft 445 kts 244°
2026-05-05 09:03 51.95859 3.53101 35973 ft 439 kts 243°
2026-05-05 09:04 51.90441 3.35287 35961 ft 446 kts 243°
2026-05-05 09:04 51.85331 3.17050 35964 ft 446 kts 253°
2026-05-05 09:05 51.82981 2.87529 35960 ft 448 kts 263°
2026-05-05 09:05 51.81018 2.58384 35963 ft 449 kts 263°
2026-05-05 09:06 51.79636 2.38652 35501 ft 427 kts 262°
2026-05-05 09:06 51.78974 2.29326 34448 ft 421 kts 262°
2026-05-05 09:06 51.78306 2.19948 32995 ft 420 kts 263°
2026-05-05 09:06 51.77757 2.10511 31359 ft 423 kts 263°
2026-05-05 09:07 51.77221 2.01095 29849 ft 422 kts 262°
2026-05-05 09:07 51.76659 1.91688 28379 ft 417 kts 262°
2026-05-05 09:07 51.76114 1.82777 27029 ft 412 kts 262°
2026-05-05 09:07 51.75546 1.73589 25698 ft 408 kts 262°
2026-05-05 09:08 51.75012 1.65082 25302 ft 406 kts 262°
2026-05-05 09:08 51.74723 1.60539 25195 ft 408 kts 262°
2026-05-05 09:08 51.74433 1.55977 25042 ft 405 kts 262°
2026-05-05 09:08 51.74146 1.51469 24594 ft 403 kts 262°
2026-05-05 09:09 51.73674 1.44138 23632 ft 402 kts 262°
2026-05-05 09:09 51.73093 1.35220 22333 ft 396 kts 262°
2026-05-05 09:09 51.72511 1.26430 21084 ft 391 kts 262°
2026-05-05 09:09 51.71828 1.16134 19655 ft 382 kts 262°
2026-05-05 09:10 51.71113 1.05594 18185 ft 377 kts 263°
2026-05-05 09:10 51.70542 0.97283 17010 ft 371 kts 263°
2026-05-05 09:10 51.69977 0.89135 16325 ft 354 kts 263°
2026-05-05 09:10 51.69449 0.81551 16059 ft 327 kts 263°
2026-05-05 09:11 51.68950 0.74474 15993 ft 319 kts 263°
2026-05-05 09:11 51.68443 0.67356 15992 ft 318 kts 263°
2026-05-05 09:11 51.67744 0.57624 15990 ft 317 kts 260°
2026-05-05 09:11 51.67116 0.49102 15988 ft 319 kts 263°
2026-05-05 09:12 51.66601 0.42002 15988 ft 319 kts 263°
2026-05-05 09:12 51.66080 0.34897 15987 ft 320 kts 262°
2026-05-05 09:12 51.65553 0.27807 15987 ft 319 kts 262°
2026-05-05 09:12 51.65021 0.20726 15988 ft 319 kts 262°
2026-05-05 09:13 51.64489 0.13646 15977 ft 319 kts 263°
2026-05-05 09:13 51.64111 0.06654 15825 ft 303 kts 265°
2026-05-05 09:13 51.63790 0.00243 15607 ft 281 kts 265°
2026-05-05 09:13 51.63455 -0.05983 14914 ft 277 kts 265°
2026-05-05 09:14 51.63117 -0.12049 14230 ft 276 kts 265°
2026-05-05 09:14 51.62771 -0.18186 13516 ft 274 kts 265°
2026-05-05 09:14 51.62432 -0.24209 12872 ft 268 kts 265°
2026-05-05 09:14 51.62092 -0.30161 12197 ft 265 kts 265°
2026-05-05 09:15 51.61751 -0.36044 11500 ft 261 kts 266°
2026-05-05 09:15 51.61316 -0.43546 10654 ft 256 kts 265°
2026-05-05 09:15 51.60767 -0.52835 9070 ft 252 kts 266°
2026-05-05 09:15 51.60495 -0.57386 8530 ft 250 kts 265°
2026-05-05 09:16 51.60331 -0.60149 8165 ft 250 kts 266°
2026-05-05 09:16 51.60166 -0.62924 7814 ft 249 kts 265°
2026-05-05 09:16 51.60003 -0.65685 7496 ft 248 kts 265°
2026-05-05 09:16 51.59836 -0.68457 7142 ft 248 kts 265°
2026-05-05 09:17 51.59727 -0.70269 6941 ft 247 kts 265°
2026-05-05 09:17 51.59504 -0.73927 6543 ft 245 kts 265°
2026-05-05 09:17 51.59325 -0.76632 6263 ft 242 kts 259°
2026-05-05 09:17 51.58959 -0.78309 6079 ft 240 kts 239°
2026-05-05 09:18 51.57805 -0.80165 5770 ft 236 kts 207°
2026-05-05 09:18 51.56245 -0.80792 5471 ft 227 kts 176°
2026-05-05 09:18 51.54718 -0.80561 5356 ft 215 kts 168°
2026-05-05 09:18 51.53268 -0.80201 5175 ft 209 kts 168°
2026-05-05 09:19 51.51833 -0.79899 4948 ft 207 kts 171°
2026-05-05 09:19 51.50412 -0.79641 4655 ft 206 kts 161°
2026-05-05 09:19 51.49190 -0.78567 4363 ft 199 kts 134°
2026-05-05 09:19 51.48342 -0.76866 4060 ft 195 kts 113°
2026-05-05 09:20 51.47871 -0.74850 3735 ft 193 kts 99°
2026-05-05 09:20 51.47662 -0.72706 3319 ft 198 kts 91°
2026-05-05 09:20 51.47605 -0.70469 2914 ft 202 kts 87°
2026-05-05 09:20 51.47607 -0.68205 2592 ft 203 kts 86°
2026-05-05 09:21 51.47618 -0.65977 2349 ft 197 kts 85°
2026-05-05 09:21 51.47631 -0.63817 2040 ft 190 kts 85°
2026-05-05 09:21 51.47645 -0.61739 1774 ft 183 kts 86°
2026-05-05 09:21 51.47657 -0.59754 1509 ft 171 kts 86°
2026-05-05 09:22 51.47669 -0.57958 1300 ft 157 kts 85°
2026-05-05 09:22 51.47680 -0.56287 1112 ft 146 kts 85°
2026-05-05 09:22 51.47690 -0.54683 888 ft 139 kts 85°
2026-05-05 09:22 51.47701 -0.53171 690 ft 133 kts 84°
2026-05-05 09:23 51.47711 -0.51687 529 ft 137 kts 86°
2026-05-05 09:23 51.47720 -0.50215 328 ft 130 kts 85°
2026-05-05 09:23 51.47729 -0.48752 181 ft 133 kts 85°
2026-05-05 09:23 51.47764 -0.47345 88 ft 121 kts 89°
2026-05-05 09:24 51.47761 -0.46357 87 ft 61 kts 90°
2026-05-05 09:24 51.47764 -0.45764 84 ft 50 kts 87°
2026-05-05 09:24 51.47741 -0.45493 86 ft 11 kts 144°
2026-05-05 09:24 51.47667 -0.45469 86 ft 10 kts 197°
2026-05-05 09:25 51.47655 -0.45474 90 ft 2 kts 187°
2026-05-05 09:25 51.47647 -0.45475 88 ft 1 kts 187°
2026-05-05 09:25 51.47631 -0.45478 87 ft 4 kts 187°
2026-05-05 09:25 51.47622 -0.45479 86 ft 2 kts 182°
2026-05-05 09:26 51.47596 -0.45476 86 ft 5 kts 171°
2026-05-05 09:26 51.47548 -0.45469 89 ft 9 kts 173°
2026-05-05 09:26 51.47508 -0.45534 89 ft 9 kts 271°
2026-05-05 09:26 51.47507 -0.45653 89 ft 12 kts 271°
2026-05-05 09:27 51.47519 -0.45800 86 ft 14 kts 272°
2026-05-05 09:27 51.47518 -0.45971 86 ft 17 kts 270°
2026-05-05 09:27 51.47518 -0.46170 86 ft 19 kts 270°
2026-05-05 09:27 51.47516 -0.46387 87 ft 20 kts 267°
2026-05-05 09:28 51.47515 -0.46620 86 ft 22 kts 270°
2026-05-05 09:28 51.47495 -0.46789 90 ft 14 kts 271°
2026-05-05 09:28 51.47491 -0.46961 86 ft 17 kts 268°
2026-05-05 09:28 51.47491 -0.47161 86 ft 19 kts 270°
2026-05-05 09:29 51.47493 -0.47387 86 ft 21 kts 270°
2026-05-05 09:29 51.47490 -0.47638 86 ft 23 kts 269°
2026-05-05 09:29 51.47490 -0.47889 86 ft 24 kts 269°
2026-05-05 09:29 51.47489 -0.48168 86 ft 26 kts 270°
2026-05-05 09:30 51.47489 -0.48285 86 ft 0 kts 270°
2026-05-05 09:30 51.47489 -0.48306 86 ft 4 kts 268°
2026-05-05 09:30 51.47473 -0.48352 87 ft 6 kts 216°
2026-05-05 09:31 51.47426 -0.48359 86 ft 9 kts 183°
2026-05-05 09:31 51.47353 -0.48359 86 ft 12 kts 179°
2026-05-05 09:31 51.47257 -0.48359 86 ft 16 kts 180°
2026-05-05 09:31 51.47143 -0.48358 86 ft 16 kts 178°
2026-05-05 09:32 51.47104 -0.48356 89 ft 0 kts 178°
2026-05-05 09:32 51.47088 -0.48356 89 ft 4 kts 179°
2026-05-05 09:32 51.47046 -0.48355 87 ft 8 kts 180°
2026-05-05 09:32 51.46976 -0.48355 88 ft 12 kts 180°
2026-05-05 09:33 51.46889 -0.48376 88 ft 12 kts 230°
2026-05-05 09:33 51.46877 -0.48499 86 ft 13 kts 268°
2026-05-05 09:33 51.46876 -0.48659 86 ft 15 kts 270°
2026-05-05 09:33 51.46879 -0.48782 86 ft 4 kts 288°
2026-05-05 09:34 51.46887 -0.48787 86 ft 1 kts 340°
2026-05-05 09:34 51.46907 -0.48787 86 ft 4 kts
2026-05-05 09:34 51.46931 -0.48787 89 ft 0 kts 359°